Starlink 35977

operational
NORAD ID: 66604 Int'l Des: 2025-270 Owner: SPXS Country: US Constellation: starlink
LEOCIRCULAR

About Starlink 35977

Description loading...

Live Position

Loading 3D Globe...

Upcoming Passes

Altitude History

Altitude vs Time

uPlot chart will show altitude changes over time

Two-Line Element Set

1 66604U 25270S 26061.12538792 .00036512 00000-0 13284-2 0 9997
2 66604 43.0014 98.4934 0001037 233.2187 126.8569 15.27614878 16553
Epoch: Mar 2, 2026 • Age: 27 hours

Current Status

Altitude 482.0 km
Velocity 7.63 km/s
Sub-Earth Point 1.11°N, 60.8°E
Launch Date Nov 22, 2025
Age 0.2 years
Type internet

Technical Details

Classification Payload
Mass 575.00 kg
Dry Mass 530.00 kg
Total Mass 575.00 kg
Length 0.30 m
Diameter 4.10 m
Span 29.00 m
Shape Box + pan
Manufacturer SPXS
Bus Type Starlink V2MO
Phase Status In Orbit
Owner/State SPXS/US

Large Constellations

Loading constellations...